23-12-2023, 00:00:02,    243,    0.4,    6.5,   0.00,   0.00, 1012.4,   79.9, -999.0
23-12-2023, 00:00:12,    243,    2.0,    6.6,   0.00,   0.00, 1012.5,   80.3, -999.0
23-12-2023, 00:00:22,    271,    2.1,    6.6,   0.00,   0.00, 1012.5,   80.4, -999.0
23-12-2023, 00:00:32,    240,    2.0,    6.6,   0.00,   0.00, 1012.5,   80.4, -999.0
23-12-2023, 00:00:42,    240,    0.9,    6.6,   0.00,   0.00, 1012.5,   80.4, -999.0
23-12-2023, 00:00:52,    247,    2.5,    6.6,   0.00,   0.00, 1012.5,   81.0, -999.0
23-12-2023, 00:01:02,    261,    1.8,    6.7,   0.00,   0.00, 1012.5,   81.2, -999.0
23-12-2023, 00:01:12,    238,    2.8,    6.6,   0.00,   0.00, 1012.5,   81.3, -999.0
23-12-2023, 00:01:22,    244,    2.2,    6.6,   0.00,   0.00, 1012.5,   81.5, -999.0
23-12-2023, 00:01:31,    237,    1.4,    6.6,   0.00,   0.00, 1012.5,   81.7, -999.0
23-12-2023, 00:01:42,    253,    2.3,    6.6,   0.00,   0.00, 1012.5,   81.5, -999.0
23-12-2023, 00:01:52,    252,    2.4,    6.7,   0.00,   0.00, 1012.5,   81.1, -999.0
23-12-2023, 00:02:02,    246,    5.0,    6.7,   0.00,   0.00, 1012.5,   80.7, -999.0
23-12-2023, 00:02:11,    233,    5.1,    6.7,   0.00,   0.00, 1012.4,   80.5, -999.0
23-12-2023, 00:02:22,    238,    2.8,    6.6,   0.00,   0.00, 1012.4,   80.5, -999.0
23-12-2023, 00:02:32,    250,    2.4,    6.7,   0.00,   0.00, 1012.4,   80.1, -999.0
23-12-2023, 00:02:41,    260,    2.1,    6.6,   0.00,   0.00, 1012.4,   79.8, -999.0
23-12-2023, 00:02:51,    244,    2.2,    6.6,   0.00,   0.00, 1012.4,   79.6, -999.0
23-12-2023, 00:03:02,    225,    2.3,    6.6,   0.00,   0.00, 1012.4,   79.4, -999.0
23-12-2023, 00:03:11,    224,    1.8,    6.6,   0.00,   0.00, 1012.4,   79.5, -999.0
23-12-2023, 00:03:21,    244,    2.1,    6.7,   0.00,   0.00, 1012.4,   79.6, -999.0
23-12-2023, 00:03:31,    244,    1.5,    6.6,   0.00,   0.00, 1012.4,   79.8, -999.0
23-12-2023, 00:03:41,    244,    1.1,    6.6,   0.00,   0.00, 1012.4,   80.2, -999.0
23-12-2023, 00:03:51,    244,    0.2,    6.6,   0.00,   0.00, 1012.3,   79.8, -999.0
23-12-2023, 00:04:01,    228,    0.0,    6.4,   0.00,   0.00, 1012.2,   79.5, -999.0
23-12-2023, 00:04:12,    228,    0.0,    6.5,   0.00,   0.00, 1012.3,   79.6, -999.0
23-12-2023, 00:04:21,    229,    0.0,    6.5,   0.00,   0.00, 1012.3,   79.6, -999.0
23-12-2023, 00:04:31,    243,    2.6,    6.6,   0.00,   0.00, 1012.3,   79.5, -999.0
23-12-2023, 00:04:41,    255,    3.8,    6.6,   0.00,   0.00, 1012.4,   79.5, -999.0
23-12-2023, 00:04:51,    227,    2.1,    6.5,   0.00,   0.00, 1012.3,   79.9, -999.0
23-12-2023, 00:05:01,    236,    3.3,    6.6,   0.00,   0.00, 1012.4,   80.0, -999.0
23-12-2023, 00:05:11,    258,    2.3,    6.5,   0.00,   0.00, 1012.3,   80.2, -999.0
23-12-2023, 00:05:21,    249,    2.2,    6.6,   0.00,   0.00, 1012.4,   80.2, -999.0
23-12-2023, 00:05:31,    268,    4.2,    6.6,   0.00,   0.00, 1012.4,   80.2, -999.0
23-12-2023, 00:05:41,    238,    3.2,    6.6,   0.00,   0.00, 1012.4,   80.1, -999.0
23-12-2023, 00:05:51,    252,    3.2,    6.6,   0.00,   0.00, 1012.3,   80.3, -999.0
23-12-2023, 00:06:01,    264,    4.5,    6.6,   0.00,   0.00, 1012.4,   80.4, -999.0
23-12-2023, 00:06:11,    258,    3.5,    6.6,   0.00,   0.00, 1012.4,   80.3, -999.0
23-12-2023, 00:06:21,    239,    2.1,    6.6,   0.00,   0.00, 1012.4,   80.0, -999.0
23-12-2023, 00:06:31,    242,    1.6,    6.6,   0.00,   0.00, 1012.4,   80.1, -999.0
23-12-2023, 00:06:41,    275,    1.2,    6.6,   0.00,   0.00, 1012.4,   80.1, -999.0
23-12-2023, 00:06:51,    279,    2.1,    6.5,   0.00,   0.00, 1012.4,   79.9, -999.0
23-12-2023, 00:07:01,    274,    1.2,    6.5,   0.00,   0.00, 1012.4,   79.7, -999.0
23-12-2023, 00:07:11,    273,    0.5,    6.5,   0.00,   0.00, 1012.3,   79.6, -999.0
23-12-2023, 00:07:21,    278,    1.0,    6.5,   0.00,   0.00, 1012.4,   79.9, -999.0
23-12-2023, 00:07:31,    228,    2.5,    6.5,   0.00,   0.00, 1012.4,   79.8, -999.0
23-12-2023, 00:07:41,    213,    2.3,    6.5,   0.00,   0.00, 1012.4,   80.1, -999.0
23-12-2023, 00:07:51,    256,    1.9,    6.6,   0.00,   0.00, 1012.4,   80.5, -999.0
23-12-2023, 00:08:01,    244,    5.1,    6.6,   0.00,   0.00, 1012.4,   80.7, -999.0
23-12-2023, 00:08:11,    242,    4.2,    6.6,   0.00,   0.00, 1012.4,   80.8, -999.0
23-12-2023, 00:08:21,    250,    2.2,    6.6,   0.00,   0.00, 1012.4,   80.7, -999.0
23-12-2023, 00:08:31,    265,    2.1,    6.6,   0.00,   0.00, 1012.4,   80.4, -999.0
23-12-2023, 00:08:41,    257,    2.5,    6.5,   0.00,   0.00, 1012.4,   80.1, -999.0
23-12-2023, 00:08:51,    223,    2.6,    6.6,   0.00,   0.00, 1012.4,   80.0, -999.0
23-12-2023, 00:09:01,    253,    3.2,    6.6,   0.00,   0.00, 1012.4,   80.3, -999.0
23-12-2023, 00:09:11,    264,    3.3,    6.6,   0.00,   0.00, 1012.4,   80.2, -999.0
23-12-2023, 00:09:21,    237,    2.2,    6.6,   0.00,   0.00, 1012.4,   79.8, -999.0
23-12-2023, 00:09:31,    237,    1.0,    6.6,   0.00,   0.00, 1012.3,   79.6, -999.0
23-12-2023, 00:09:41,    237,    0.0,    6.4,   0.00,   0.00, 1012.2,   79.2, -999.0
23-12-2023, 00:09:50,    237,    0.0,    6.5,   0.00,   0.00, 1012.2,   79.0, -999.0
23-12-2023, 00:10:01,    237,    0.1,    6.5,   0.00,   0.00, 1012.3,   79.1, -999.0
23-12-2023, 00:10:11,    236,    0.0,    6.5,   0.00,   0.00, 1012.2,   78.9, -999.0
23-12-2023, 00:10:20,    237,    0.4,    6.5,   0.00,   0.00, 1012.3,   79.0, -999.0
23-12-2023, 00:10:31,    238,    0.4,    6.6,   0.00,   0.00, 1012.3,   79.2, -999.0
23-12-2023, 00:10:41,    240,    0.8,    6.5,   0.00,   0.00, 1012.3,   79.3, -999.0
23-12-2023, 00:10:50,    267,    2.2,    6.5,   0.00,   0.00, 1012.3,   79.3, -999.0
23-12-2023, 00:11:00,    280,    1.1,    6.6,   0.00,   0.00, 1012.3,   79.3, -999.0
23-12-2023, 00:11:11,    281,    0.7,    6.5,   0.00,   0.00, 1012.3,   79.3, -999.0
23-12-2023, 00:11:20,    260,    0.9,    6.4,   0.00,   0.00, 1012.3,   79.2, -999.0
23-12-2023, 00:11:30,    279,    2.9,    6.5,   0.00,   0.00, 1012.3,   79.5, -999.0
23-12-2023, 00:11:40,    278,    1.8,    6.6,   0.00,   0.00, 1012.3,   79.5, -999.0
23-12-2023, 00:11:51,    264,    4.1,    6.5,   0.00,   0.00, 1012.3,   79.4, -999.0
23-12-2023, 00:12:00,    258,    3.0,    6.5,   0.00,   0.00, 1012.3,   79.8, -999.0
23-12-2023, 00:12:10,    250,    3.0,    6.4,   0.00,   0.00, 1012.3,   80.0, -999.0
23-12-2023, 00:12:20,    245,    2.9,    6.5,   0.00,   0.00, 1012.3,   80.0, -999.0
23-12-2023, 00:12:30,    247,    1.9,    6.5,   0.00,   0.00, 1012.3,   80.1, -999.0
23-12-2023, 00:12:40,    248,    1.2,    6.5,   0.00,   0.00, 1012.2,   80.3, -999.0
23-12-2023, 00:12:50,    228,    1.0,    6.5,   0.00,   0.00, 1012.2,   80.3, -999.0
23-12-2023, 00:13:00,    251,    2.4,    6.5,   0.00,   0.00, 1012.2,   80.4, -999.0
23-12-2023, 00:13:10,    239,    2.3,    6.5,   0.00,   0.00, 1012.3,   80.4, -999.0
23-12-2023, 00:13:20,    270,    4.1,    6.5,   0.00,   0.00, 1012.2,   80.5, -999.0
23-12-2023, 00:13:30,    256,    2.0,    6.5,   0.00,   0.00, 1012.2,   80.2, -999.0
23-12-2023, 00:13:40,    279,    1.8,    6.4,   0.00,   0.00, 1012.1,   79.8, -999.0
23-12-2023, 00:13:50,    238,    0.9,    6.5,   0.00,   0.00, 1012.2,   79.5, -999.0
23-12-2023, 00:14:00,    235,    1.9,    6.5,   0.00,   0.00, 1012.2,   79.3, -999.0
23-12-2023, 00:14:10,    236,    0.9,    6.5,   0.00,   0.00, 1012.1,   79.2, -999.0
23-12-2023, 00:14:20,    266,    2.3,    6.6,   0.00,   0.00, 1012.2,   79.1, -999.0
23-12-2023, 00:14:30,    254,    2.9,    6.5,   0.00,   0.00, 1012.2,   79.0, -999.0
23-12-2023, 00:14:40,    256,    1.4,    6.6,   0.00,   0.00, 1012.2,   78.9, -999.0
23-12-2023, 00:14:50,    259,    1.8,    6.6,   0.00,   0.00, 1012.1,   79.0, -999.0
23-12-2023, 00:15:00,    274,    2.1,    6.5,   0.00,   0.00, 1012.1,   78.9, -999.0
23-12-2023, 00:15:10,    274,    1.0,    6.5,   0.00,   0.00, 1012.1,   78.9, -999.0
23-12-2023, 00:15:20,    308,    1.5,    6.5,   0.00,   0.00, 1012.2,   78.9, -999.0
23-12-2023, 00:15:30,    307,    0.0,    6.5,   0.00,   0.00, 1012.0,   78.6, -999.0
23-12-2023, 00:15:40,    262,    0.5,    6.5,   0.00,   0.00, 1012.1,   78.8, -999.0
23-12-2023, 00:15:50,    264,    2.0,    6.5,   0.00,   0.00, 1012.2,   79.1, -999.0
23-12-2023, 00:16:00,    254,    3.0,    6.6,   0.00,   0.00, 1012.1,   79.2, -999.0
23-12-2023, 00:16:10,    269,    3.3,    6.6,   0.00,   0.00, 1012.1,   79.8, -999.0
23-12-2023, 00:16:20,    219,    2.4,    6.6,   0.00,   0.00, 1012.1,   79.6, -999.0
23-12-2023, 00:16:30,    247,    1.5,    6.6,   0.00,   0.00, 1012.2,   79.6, -999.0
23-12-2023, 00:16:40,    211,    4.5,    6.5,   0.00,   0.00, 1012.2,   79.6, -999.0
23-12-2023, 00:16:49,    223,    2.5,    6.6,   0.00,   0.00, 1012.1,   79.3, -999.0
23-12-2023, 00:17:00,    213,    0.3,    6.6,   0.00,   0.00, 1012.1,   78.9, -999.0
23-12-2023, 00:17:10,    216,    0.4,    6.5,   0.00,   0.00, 1012.1,   78.6, -999.0
23-12-2023, 00:17:20,    217,    0.3,    6.5,   0.00,   0.00, 1012.1,   78.6, -999.0
23-12-2023, 00:17:30,    219,    0.0,    6.5,   0.00,   0.00, 1012.0,   78.3, -999.0
23-12-2023, 00:17:40,    225,    0.8,    6.5,   0.00,   0.00, 1012.1,   78.3, -999.0
23-12-2023, 00:17:50,    256,    1.0,    6.5,   0.00,   0.00, 1012.1,   78.3, -999.0
23-12-2023, 00:17:59,    254,    0.2,    6.5,   0.00,   0.00, 1012.1,   78.2, -999.0
23-12-2023, 00:18:10,    255,    0.2,    6.5,   0.00,   0.00, 1012.1,   78.1, -999.0
23-12-2023, 00:18:20,    274,    1.2,    6.5,   0.00,   0.00, 1012.1,   78.2, -999.0
23-12-2023, 00:18:29,    228,    2.1,    6.5,   0.00,   0.00, 1012.1,   78.4, -999.0
23-12-2023, 00:18:39,    252,    3.4,    6.5,   0.00,   0.00, 1012.1,   78.5, -999.0
23-12-2023, 00:18:50,    291,    4.1,    6.5,   0.00,   0.00, 1012.1,   78.7, -999.0
23-12-2023, 00:19:00,    209,    3.2,    6.5,   0.00,   0.00, 1012.1,   78.9, -999.0
23-12-2023, 00:19:09,    237,    3.6,    6.6,   0.00,   0.00, 1012.1,   78.9, -999.0
23-12-2023, 00:19:19,    279,    1.7,    6.6,   0.00,   0.00, 1012.1,   78.9, -999.0
23-12-2023, 00:19:30,    228,    2.5,    6.6,   0.00,   0.00, 1012.1,   78.6, -999.0
23-12-2023, 00:19:39,    282,    2.5,    6.6,   0.00,   0.00, 1012.1,   78.4, -999.0
23-12-2023, 00:19:49,    260,    3.6,    6.6,   0.00,   0.00, 1012.1,   78.3, -999.0
23-12-2023, 00:19:59,    265,    2.4,    6.6,   0.00,   0.00, 1012.1,   77.9, -999.0
23-12-2023, 00:20:09,    229,    3.5,    6.6,   0.00,   0.00, 1012.1,   77.8, -999.0
23-12-2023, 00:20:19,    266,    3.4,    6.6,   0.00,   0.00, 1012.1,   77.8, -999.0
23-12-2023, 00:20:29,    253,    4.3,    6.6,   0.00,   0.00, 1012.1,   77.7, -999.0
23-12-2023, 00:20:39,    253,    1.6,    6.6,   0.00,   0.00, 1012.1,   77.5, -999.0
23-12-2023, 00:20:49,    244,    3.3,    6.6,   0.00,   0.00, 1012.1,   77.5, -999.0
23-12-2023, 00:20:59,    283,    2.7,    6.6,   0.00,   0.00, 1012.0,   77.5, -999.0
23-12-2023, 00:21:09,    282,    1.0,    6.6,   0.00,   0.00, 1012.0,   77.4, -999.0
23-12-2023, 00:21:19,    273,    0.6,    6.6,   0.00,   0.00, 1012.0,   77.2, -999.0
23-12-2023, 00:21:29,    262,    1.9,    6.7,   0.00,   0.00, 1012.0,   77.2, -999.0
23-12-2023, 00:21:39,    263,    0.1,    6.6,   0.00,   0.00, 1011.9,   76.9, -999.0
23-12-2023, 00:21:49,    262,    0.0,    6.5,   0.00,   0.00, 1011.9,   76.8, -999.0
23-12-2023, 00:21:59,    332,    0.9,    6.5,   0.00,   0.00, 1012.0,   76.7, -999.0
23-12-2023, 00:22:09,    290,    1.7,    6.6,   0.00,   0.00, 1012.0,   77.0, -999.0
23-12-2023, 00:22:19,    289,    0.2,    6.6,   0.00,   0.00, 1011.9,   76.7, -999.0
23-12-2023, 00:22:29,    280,    0.1,    6.6,   0.00,   0.00, 1012.0,   76.8, -999.0
23-12-2023, 00:22:39,    258,    0.9,    6.6,   0.00,   0.00, 1012.0,   76.9, -999.0
23-12-2023, 00:22:49,    280,    2.1,    6.6,   0.00,   0.00, 1012.0,   77.0, -999.0
23-12-2023, 00:22:59,    227,    1.7,    6.6,   0.00,   0.00, 1012.1,   77.0, -999.0
23-12-2023, 00:23:09,    251,    3.4,    6.6,   0.00,   0.00, 1012.1,   77.0, -999.0
23-12-2023, 00:23:19,    256,    2.6,    6.6,   0.00,   0.00, 1012.1,   77.0, -999.0
23-12-2023, 00:23:29,    247,    1.4,    6.7,   0.00,   0.00, 1012.0,   77.0, -999.0
23-12-2023, 00:23:39,    230,    0.6,    6.6,   0.00,   0.00, 1012.0,   76.9, -999.0
23-12-2023, 00:23:49,    287,    2.2,    6.7,   0.00,   0.00, 1012.0,   76.9, -999.0
23-12-2023, 00:23:59,    263,    3.2,    6.6,   0.00,   0.00, 1012.0,   76.9, -999.0
23-12-2023, 00:24:09,    269,    4.6,    6.6,   0.00,   0.00, 1012.0,   77.0, -999.0
23-12-2023, 00:24:19,    275,    4.1,    6.6,   0.00,   0.00, 1012.0,   76.7, -999.0
23-12-2023, 00:24:29,    289,    1.6,    6.6,   0.00,   0.00, 1012.0,   76.6, -999.0
23-12-2023, 00:24:39,    249,    2.2,    6.6,   0.00,   0.00, 1012.0,   76.5, -999.0
23-12-2023, 00:24:49,    266,    3.7,    6.7,   0.00,   0.00, 1012.0,   76.6, -999.0
23-12-2023, 00:24:59,    206,    4.7,    6.7,   0.00,   0.00, 1011.9,   76.6, -999.0
23-12-2023, 00:25:09,    220,    2.3,    6.7,   0.00,   0.00, 1012.0,   76.8, -999.0
23-12-2023, 00:25:19,    237,    2.9,    6.6,   0.00,   0.00, 1012.0,   76.9, -999.0
23-12-2023, 00:25:29,    302,    1.2,    6.7,   0.00,   0.00, 1012.0,   76.9, -999.0
23-12-2023, 00:25:38,    258,    1.4,    6.6,   0.00,   0.00, 1012.0,   76.7, -999.0
23-12-2023, 00:25:49,    304,    4.3,    6.6,   0.00,   0.00, 1012.0,   76.6, -999.0
23-12-2023, 00:25:59,    230,    2.0,    6.6,   0.00,   0.00, 1012.1,   76.6, -999.0
23-12-2023, 00:26:08,    276,    5.6,    6.6,   0.00,   0.00, 1012.0,   76.5, -999.0
23-12-2023, 00:26:18,    248,    3.5,    6.7,   0.00,   0.00, 1012.0,   76.6, -999.0
23-12-2023, 00:26:29,    243,    5.9,    6.5,   0.00,   0.00, 1012.1,   76.6, -999.0
23-12-2023, 00:26:38,    283,    4.1,    6.7,   0.00,   0.00, 1012.1,   76.5, -999.0
23-12-2023, 00:26:48,    262,    3.2,    6.7,   0.00,   0.00, 1012.0,   76.5, -999.0
23-12-2023, 00:26:59,    230,    4.0,    6.7,   0.00,   0.00, 1012.1,   76.5, -999.0
23-12-2023, 00:27:09,    268,    2.5,    6.7,   0.00,   0.00, 1012.0,   76.4, -999.0
23-12-2023, 00:27:18,    294,    6.2,    6.7,   0.00,   0.00, 1012.1,   76.4, -999.0
23-12-2023, 00:27:28,    232,    5.0,    6.7,   0.00,   0.00, 1012.0,   76.3, -999.0
23-12-2023, 00:27:39,    291,    3.2,    6.7,   0.00,   0.00, 1012.0,   76.2, -999.0
23-12-2023, 00:27:48,    233,    3.2,    6.6,   0.00,   0.00, 1012.1,   76.2, -999.0
23-12-2023, 00:27:58,    256,    3.8,    6.7,   0.00,   0.00, 1012.0,   76.0, -999.0
23-12-2023, 00:28:08,    256,    2.8,    6.7,   0.00,   0.00, 1012.0,   76.0, -999.0
23-12-2023, 00:28:18,    248,    1.7,    6.7,   0.00,   0.00, 1012.0,   76.0, -999.0
23-12-2023, 00:28:28,    255,    3.1,    6.7,   0.00,   0.00, 1012.0,   75.9, -999.0
23-12-2023, 00:28:38,    263,    3.9,    6.7,   0.00,   0.00, 1012.0,   76.0, -999.0
23-12-2023, 00:28:48,    286,    2.3,    6.7,   0.00,   0.00, 1012.1,   75.9, -999.0
23-12-2023, 00:28:58,    277,    2.5,    6.8,   0.00,   0.00, 1012.1,   75.9, -999.0
23-12-2023, 00:29:08,    280,    0.7,    6.6,   0.00,   0.00, 1012.0,   75.9, -999.0
23-12-2023, 00:29:18,    243,    2.5,    6.6,   0.00,   0.00, 1012.1,   75.9, -999.0
23-12-2023, 00:29:28,    240,    1.5,    6.7,   0.00,   0.00, 1012.1,   75.9, -999.0
23-12-2023, 00:29:38,    315,    1.3,    6.7,   0.00,   0.00, 1012.1,   76.0, -999.0
23-12-2023, 00:29:48,    261,    1.7,    6.7,   0.00,   0.00, 1012.2,   76.2, -999.0
23-12-2023, 00:29:58,    234,    5.1,    6.7,   0.00,   0.00, 1012.0,   76.2, -999.0
23-12-2023, 00:30:08,    247,    1.6,    6.7,   0.00,   0.00, 1012.1,   76.3, -999.0
23-12-2023, 00:30:18,    264,    1.0,    6.6,   0.00,   0.00, 1012.1,   76.3, -999.0
23-12-2023, 00:30:28,    288,    1.3,    6.7,   0.00,   0.00, 1012.1,   76.3, -999.0
23-12-2023, 00:30:38,    282,    0.8,    6.7,   0.00,   0.00, 1012.0,   76.4, -999.0
23-12-2023, 00:30:48,    282,    1.2,    6.7,   0.00,   0.00, 1012.1,   76.4, -999.0
23-12-2023, 00:30:58,    272,    1.3,    6.6,   0.00,   0.00, 1012.1,   76.3, -999.0
23-12-2023, 00:31:08,    267,    2.8,    6.7,   0.00,   0.00, 1012.1,   76.6, -999.0
23-12-2023, 00:31:18,    224,    5.8,    6.7,   0.00,   0.00, 1012.1,   76.8, -999.0
23-12-2023, 00:31:28,    239,    6.4,    6.7,   0.00,   0.00, 1012.1,   76.9, -999.0
23-12-2023, 00:31:38,    230,    3.1,    6.7,   0.00,   0.00, 1012.1,   76.9, -999.0
23-12-2023, 00:31:48,    247,    3.6,    6.7,   0.00,   0.00, 1012.1,   76.6, -999.0
23-12-2023, 00:31:58,    248,    1.3,    6.7,   0.00,   0.00, 1012.1,   76.5, -999.0
23-12-2023, 00:32:08,    308,    0.5,    6.6,   0.00,   0.00, 1012.1,   76.2, -999.0
23-12-2023, 00:32:18,    248,    2.7,    6.7,   0.00,   0.00, 1012.1,   76.3, -999.0
23-12-2023, 00:32:28,    247,    0.3,    6.7,   0.00,   0.00, 1012.0,   76.0, -999.0
23-12-2023, 00:32:37,    269,    5.5,    6.7,   0.00,   0.00, 1012.1,   76.3, -999.0
23-12-2023, 00:32:48,    262,    5.5,    6.7,   0.00,   0.00, 1012.1,   76.3, -999.0
23-12-2023, 00:32:58,    250,    5.2,    6.7,   0.00,   0.00, 1012.1,   76.2, -999.0
23-12-2023, 00:33:08,    239,    3.0,    6.6,   0.00,   0.00, 1012.1,   76.2, -999.0
23-12-2023, 00:33:18,    247,    2.6,    6.6,   0.00,   0.00, 1012.1,   76.2, -999.0
23-12-2023, 00:33:28,    298,    3.0,    6.7,   0.00,   0.00, 1012.1,   76.3, -999.0
23-12-2023, 00:33:38,    248,    1.1,    6.7,   0.00,   0.00, 1012.1,   76.4, -999.0
23-12-2023, 00:33:47,    295,    4.0,    6.7,   0.00,   0.00, 1012.1,   76.5, -999.0
23-12-2023, 00:33:58,    251,    5.9,    6.7,   0.00,   0.00, 1012.1,   76.7, -999.0
23-12-2023, 00:34:08,    269,    4.4,    6.7,   0.00,   0.00, 1012.1,   76.8, -999.0
23-12-2023, 00:34:17,    244,    3.5,    6.8,   0.00,   0.00, 1012.1,   76.9, -999.0
23-12-2023, 00:34:27,    239,    3.3,    6.7,   0.00,   0.00, 1012.1,   76.9, -999.0
23-12-2023, 00:34:38,    248,    2.8,    6.8,   0.00,   0.00, 1012.1,   76.8, -999.0
23-12-2023, 00:34:48,    192,    5.4,    6.8,   0.00,   0.00, 1012.1,   76.8, -999.0
23-12-2023, 00:34:57,    294,    3.0,    6.7,   0.00,   0.00, 1012.0,   76.8, -999.0
23-12-2023, 00:35:07,    324,    2.5,    6.7,   0.00,   0.00, 1012.1,   76.8, -999.0
23-12-2023, 00:35:18,    275,    2.4,    6.7,   0.00,   0.00, 1012.0,   76.8, -999.0
23-12-2023, 00:35:27,    286,    0.6,    6.7,   0.00,   0.00, 1011.9,   76.6, -999.0
23-12-2023, 00:35:37,    280,    0.4,    6.6,   0.00,   0.00, 1012.0,   76.5, -999.0
23-12-2023, 00:35:47,    240,    2.9,    6.7,   0.00,   0.00, 1012.0,   76.6, -999.0
23-12-2023, 00:35:57,    309,    3.2,    6.7,   0.00,   0.00, 1012.0,   76.8, -999.0
23-12-2023, 00:36:07,    264,    2.7,    6.7,   0.00,   0.00, 1012.0,   76.8, -999.0
23-12-2023, 00:36:17,    244,    0.4,    6.7,   0.00,   0.00, 1011.9,   76.7, -999.0
23-12-2023, 00:36:27,    226,    2.9,    6.7,   0.00,   0.00, 1012.0,   76.9, -999.0
23-12-2023, 00:36:37,    257,    1.4,    6.8,   0.00,   0.00, 1012.0,   76.9, -999.0
23-12-2023, 00:36:47,    229,    1.2,    6.7,   0.00,   0.00, 1012.0,   76.8, -999.0
23-12-2023, 00:36:57,    238,    2.4,    6.7,   0.00,   0.00, 1012.0,   76.8, -999.0
23-12-2023, 00:37:07,    267,    0.8,    6.7,   0.00,   0.00, 1012.0,   76.9, -999.0
23-12-2023, 00:37:17,    242,    1.9,    6.7,   0.00,   0.00, 1012.0,   77.0, -999.0
23-12-2023, 00:37:27,    279,    4.1,    6.7,   0.00,   0.00, 1012.0,   77.0, -999.0
23-12-2023, 00:37:37,    262,    4.6,    6.7,   0.00,   0.00, 1012.0,   77.0, -999.0
23-12-2023, 00:37:47,    214,    2.3,    6.7,   0.00,   0.00, 1012.0,   77.2, -999.0
23-12-2023, 00:37:57,    205,    3.2,    6.7,   0.00,   0.00, 1012.0,   77.2, -999.0
23-12-2023, 00:38:07,    267,    1.5,    6.7,   0.00,   0.00, 1012.1,   77.4, -999.0
23-12-2023, 00:38:17,    251,    3.6,    6.7,   0.00,   0.00, 1012.0,   77.3, -999.0
23-12-2023, 00:38:27,    274,    1.5,    6.7,   0.00,   0.00, 1012.0,   77.2, -999.0
23-12-2023, 00:38:37,    284,    1.5,    6.7,   0.00,   0.00, 1012.0,   77.2, -999.0
23-12-2023, 00:38:47,    258,    4.1,    6.7,   0.00,   0.00, 1012.1,   77.2, -999.0
23-12-2023, 00:38:57,    263,    2.0,    6.7,   0.00,   0.00, 1012.1,   77.3, -999.0
23-12-2023, 00:39:07,    237,    5.6,    6.7,   0.00,   0.00, 1012.1,   77.5, -999.0
23-12-2023, 00:39:17,    227,    4.6,    6.6,   0.00,   0.00, 1012.0,   77.8, -999.0
23-12-2023, 00:39:27,    261,    2.8,    6.7,   0.00,   0.00, 1012.1,   77.9, -999.0
23-12-2023, 00:39:37,    266,    1.5,    6.7,   0.00,   0.00, 1012.0,   78.0, -999.0
23-12-2023, 00:39:47,    232,    2.3,    6.7,   0.00,   0.00, 1012.0,   77.9, -999.0
23-12-2023, 00:39:57,    297,    1.2,    6.7,   0.00,   0.00, 1012.0,   77.9, -999.0
23-12-2023, 00:40:07,    207,    1.6,    6.7,   0.00,   0.00, 1012.0,   77.9, -999.0
23-12-2023, 00:40:17,    250,    5.2,    6.7,   0.00,   0.00, 1012.0,   77.9, -999.0
23-12-2023, 00:40:27,    240,    5.7,    6.7,   0.00,   0.00, 1012.0,   78.0, -999.0
23-12-2023, 00:40:37,    246,    6.0,    6.7,   0.00,   0.00, 1012.0,   78.2, -999.0
23-12-2023, 00:40:46,    282,    5.0,    6.7,   0.00,   0.00, 1012.0,   78.4, -999.0
23-12-2023, 00:40:57,    245,    4.2,    6.7,   0.00,   0.00, 1012.0,   78.3, -999.0
23-12-2023, 00:41:07,    262,    4.5,    6.8,   0.00,   0.00, 1012.0,   78.2, -999.0
23-12-2023, 00:41:17,    267,    5.9,    6.6,   0.00,   0.00, 1012.0,   78.1, -999.0
23-12-2023, 00:41:26,    231,    6.7,    6.7,   0.00,   0.00, 1012.0,   77.9, -999.0
23-12-2023, 00:41:37,    236,    4.3,    6.8,   0.00,   0.00, 1011.9,   77.9, -999.0
23-12-2023, 00:41:47,    242,    5.0,    6.7,   0.00,   0.00, 1011.9,   78.0, -999.0
23-12-2023, 00:41:56,    206,    4.2,    6.7,   0.00,   0.00, 1012.0,   77.9, -999.0
23-12-2023, 00:42:06,    251,    2.1,    6.8,   0.00,   0.00, 1011.9,   77.6, -999.0
23-12-2023, 00:42:17,    216,    4.0,    6.8,   0.00,   0.00, 1012.0,   77.5, -999.0
23-12-2023, 00:42:26,    229,    3.5,    6.8,   0.00,   0.00, 1012.0,   77.5, -999.0
23-12-2023, 00:42:36,    237,    4.0,    6.8,   0.00,   0.00, 1012.0,   77.5, -999.0
23-12-2023, 00:42:47,    266,    2.5,    6.8,   0.00,   0.00, 1011.9,   77.5, -999.0
23-12-2023, 00:42:57,    231,    4.2,    6.7,   0.00,   0.00, 1011.9,   77.4, -999.0
23-12-2023, 00:43:06,    228,    3.2,    6.8,   0.00,   0.00, 1012.0,   77.4, -999.0
23-12-2023, 00:43:16,    282,    1.7,    6.8,   0.00,   0.00, 1011.9,   77.5, -999.0
23-12-2023, 00:43:27,    275,    2.0,    6.8,   0.00,   0.00, 1011.9,   77.5, -999.0
23-12-2023, 00:43:36,    274,    0.4,    6.8,   0.00,   0.00, 1011.9,   77.1, -999.0
23-12-2023, 00:43:46,    242,    1.0,    6.7,   0.00,   0.00, 1011.9,   76.9, -999.0
23-12-2023, 00:43:56,    215,    4.2,    6.7,   0.00,   0.00, 1011.9,   77.1, -999.0
23-12-2023, 00:44:06,    209,    3.5,    6.8,   0.00,   0.00, 1012.0,   77.1, -999.0
23-12-2023, 00:44:16,    228,    2.6,    6.8,   0.00,   0.00, 1012.0,   77.3, -999.0
23-12-2023, 00:44:26,    264,    1.9,    6.7,   0.00,   0.00, 1011.9,   77.4, -999.0
23-12-2023, 00:44:36,    279,    3.4,    6.8,   0.00,   0.00, 1012.0,   77.5, -999.0
23-12-2023, 00:44:46,    241,    3.1,    6.7,   0.00,   0.00, 1011.9,   77.5, -999.0
23-12-2023, 00:44:56,    234,    3.8,    6.8,   0.00,   0.00, 1012.0,   77.5, -999.0
23-12-2023, 00:45:06,    255,    5.3,    6.8,   0.00,   0.00, 1012.0,   77.6, -999.0
23-12-2023, 00:45:16,    269,    4.4,    6.7,   0.00,   0.00, 1012.0,   77.6, -999.0
23-12-2023, 00:45:26,    250,    3.0,    6.7,   0.00,   0.00, 1012.0,   77.7, -999.0
23-12-2023, 00:45:36,    298,    2.7,    6.7,   0.00,   0.00, 1012.0,   77.7, -999.0
23-12-2023, 00:45:46,    280,    2.4,    6.7,   0.00,   0.00, 1012.0,   77.8, -999.0
23-12-2023, 00:45:56,    251,    1.9,    6.7,   0.00,   0.00, 1012.0,   77.8, -999.0
23-12-2023, 00:46:06,    250,    2.6,    6.7,   0.00,   0.00, 1012.0,   77.8, -999.0
23-12-2023, 00:46:16,    288,    4.5,    6.7,   0.00,   0.00, 1012.0,   77.9, -999.0
23-12-2023, 00:46:26,    239,    2.7,    6.7,   0.00,   0.00, 1012.1,   78.0, -999.0
23-12-2023, 00:46:36,    235,    0.5,    6.7,   0.00,   0.00, 1012.0,   78.2, -999.0
23-12-2023, 00:46:46,    301,    1.9,    6.6,   0.00,   0.00, 1012.1,   78.5, -999.0